{"data":{"norad_id":49154,"intl_designator":"2021-082AA","name":"STARLINK-3068","alt_names":[],"object_type":"PAYLOAD","status":"ACTIVE","operator":null,"country":"US","launch_date":"2021-09-14","launch_site_code":"AFWTR","launch_vehicle":null,"mission":null,"orbit_class":"UNKNOWN","rcs_meters":null,"size_class":null,"mass_kg":null,"dimensions":null,"purposes":["comms"],"wikipedia_slug":null,"has_3d_model":false,"image_url":null,"decayed_at":null,"tle_current":{"epoch":"2026-09-20T02:28:10.986816Z","epoch_age_seconds":75578,"freshness":"FRESH","line1":"1 49154U 21082AA  26263.10290494  .00001617  00000+0  14618-3 0  9991","line2":"2 49154  69.9990 145.6641 0002794 268.5025  91.5814 14.97527773276638","mean_motion":14.97527773,"eccentricity":0.0002794,"inclination_deg":69.999,"raan_deg":145.6641,"arg_perigee_deg":268.5025,"mean_anomaly_deg":91.5814,"bstar":0.00014618,"rev_number":27663,"period_min":96.158483733176,"perigee_km":572.59524183723,"apogee_km":576.48039652619,"semimajor_km":6952.6748191817,"source":"CELESTRAK","updated_at":"2026-09-20T09:00:39.250154Z"}}}